| time (UTC) | temp F | wind direction | speed MPH | gust MPH | rain 1hr in | rain 24hr in | rain mn in | humidity % | barometer mb |
| 20260902090703 | 79 | 124 | 1.0 | 2.0 | 0.00 | 0.00 | 0.00 | 69 | 1017.1 |
| 20260902090204 | 79 | 124 | 0.0 | 2.0 | 0.00 | 0.00 | 0.00 | 68 | 1017.1 |
| 20260902083703 | 79 | 124 | 1.0 | 2.0 | 0.00 | 0.00 | 0.00 | 67 | 1016.9 |
| 20260902083203 | 79 | 124 | 0.0 | 3.0 | 0.00 | 0.00 | 0.00 | 67 | 1016.9 |
| 20260902080703 | 80 | 172 | 1.0 | 2.0 | 0.00 | 0.00 | 0.00 | 65 | 1016.9 |
| 20260902080203 | 80 | 172 | 1.0 | 3.0 | 0.00 | 0.00 | 0.00 | 65 | 1016.9 |
| 20260902073704 | 81 | 172 | 1.0 | 2.0 | 0.00 | 0.00 | 0.00 | 64 | 1016.9 |
| 20260902073204 | 81 | 172 | 0.0 | 2.0 | 0.00 | 0.00 | 0.00 | 64 | 1016.9 |
| 20260902070703 | 81 | 172 | 1.0 | 2.0 | 0.00 | 0.00 | 0.00 | 64 | 1016.8 |
| 20260902070203 | 81 | 172 | 0.0 | 2.0 | 0.00 | 0.00 | 0.00 | 64 | 1016.8 |
| 20260902063703 | 82 | 172 | 0.0 | 0.0 | 0.00 | 0.00 | 0.00 | 62 | 1016.8 |
| 20260902063203 | 82 | 172 | 0.0 | 3.0 | 0.00 | 0.00 | 0.00 | 62 | 1016.8 |
| 20260902060203 | 82 | 168 | 2.0 | 3.0 | 0.00 | 0.00 | 0.00 | 61 | 1016.7 |
| 20260902053703 | 82 | 161 | 0.0 | 2.0 | 0.00 | 0.00 | 0.00 | 60 | 1016.7 |
| 20260902053203 | 82 | 161 | 0.0 | 2.0 | 0.00 | 0.00 | 0.00 | 60 | 1016.7 |
| 20260902050704 | 83 | 161 | 0.0 | 2.0 | 0.00 | 0.00 | 0.00 | 58 | 1016.8 |
| 20260902050203 | 84 | 161 | 0.0 | 5.0 | 0.00 | 0.00 | 0.00 | 57 | 1016.7 |
| 20260902043703 | 85 | 164 | 2.0 | 5.0 | 0.00 | 0.00 | 0.00 | 56 | 1016.7 |
| 20260902043203 | 85 | 163 | 2.0 | 6.0 | 0.00 | 0.00 | 0.00 | 55 | 1016.6 |
| 20260902040703 | 85 | 178 | 2.0 | 3.0 | 0.00 | 0.00 | 0.00 | 54 | 1016.5 |
| 20260902040203 | 85 | 155 | 2.0 | 5.0 | 0.00 | 0.00 | 0.00 | 54 | 1016.5 |
| 20260902033703 | 86 | 148 | 0.0 | 1.0 | 0.00 | 0.00 | 0.00 | 52 | 1016.6 |
| 20260902033203 | 86 | 148 | 0.0 | 3.0 | 0.00 | 0.00 | 0.00 | 52 | 1016.5 |
| 20260902030203 | 88 | 147 | 1.0 | 3.0 | 0.00 | 0.00 | 0.00 | 49 | 1016.1 |
| 20260902023203 | 89 | 145 | 2.0 | 5.0 | 0.00 | 0.00 | 0.00 | 47 | 1015.6 |
| 20260902020703 | 89 | 136 | 1.0 | 3.0 | 0.00 | 0.00 | 0.00 | 47 | 1015.3 |
| 20260902013703 | 91 | 136 | 1.0 | 3.0 | 0.00 | 0.00 | 0.00 | 44 | 1015.0 |
| 20260902013203 | 91 | 136 | 2.0 | 3.0 | 0.00 | 0.00 | 0.00 | 44 | 1015.0 |
| 20260902010703 | 93 | 143 | 2.0 | 3.0 | 0.00 | 0.00 | 0.00 | 42 | 1014.9 |
| 20260902003703 | 95 | 139 | 2.0 | 3.0 | 0.00 | 0.00 | 0.00 | 40 | 1014.9 |
| 20260902003202 | 95 | 138 | 2.0 | 6.0 | 0.00 | 0.00 | 0.00 | 40 | 1014.9 |
| 20260902000703 | 97 | 142 | 1.0 | 3.0 | 0.00 | 0.00 | 0.00 | 38 | 1015.0 |
| 20260902000205 | 97 | 140 | 2.0 | 8.0 | 0.00 | 0.00 | 0.00 | 38 | 1015.0 |
| 20260901233704 | 98 | 133 | 2.0 | 5.0 | 0.00 | 0.00 | 0.00 | 37 | 1015.1 |
| 20260901233203 | 98 | 162 | 3.0 | 12.0 | 0.00 | 0.00 | 0.00 | 36 | 1015.1 |
| 20260901230203 | 99 | 105 | 5.0 | 12.0 | 0.00 | 0.00 | 0.00 | 35 | 1015.3 |
| 20260901223703 | 99 | 176 | 3.0 | 9.0 | 0.00 | 0.00 | 0.00 | 35 | 1015.2 |
| 20260901223203 | 99 | 152 | 3.0 | 9.0 | 0.00 | 0.00 | 0.00 | 35 | 1015.2 |
| 20260901220203 | 99 | 165 | 3.0 | 10.0 | 0.00 | 0.00 | 0.00 | 35 | 1015.3 |
| 20260901213703 | 100 | 217 | 3.0 | 10.0 | 0.00 | 0.00 | 0.00 | 33 | 1015.5 |
| 20260901213203 | 100 | 179 | 3.0 | 12.0 | 0.00 | 0.00 | 0.00 | 33 | 1015.4 |
| 20260901210703 | 100 | 160 | 3.0 | 7.0 | 0.00 | 0.00 | 0.00 | 32 | 1015.8 |
| 20260901210204 | 100 | 183 | 2.0 | 12.0 | 0.00 | 0.00 | 0.00 | 32 | 1015.9 |
| 20260901203702 | 99 | 166 | 3.0 | 6.0 | 0.00 | 0.00 | 0.00 | 36 | 1016.3 |
| 20260901200704 | 99 | 156 | 5.0 | 12.0 | 0.00 | 0.00 | 0.00 | 35 | 1016.7 |
| 20260901200203 | 99 | 187 | 3.0 | 13.0 | 0.00 | 0.00 | 0.00 | 35 | 1016.6 |
| 20260901193703 | 99 | 180 | 3.0 | 8.0 | 0.00 | 0.00 | 0.00 | 36 | 1017.0 |
| 20260901193203 | 99 | 157 | 3.0 | 14.0 | 0.00 | 0.00 | 0.00 | 37 | 1017.0 |
| 20260901190703 | 99 | 154 | 7.0 | 12.0 | 0.00 | 0.00 | 0.00 | 34 | 1017.4 |
| 20260901190203 | 99 | 175 | 3.0 | 15.0 | 0.00 | 0.00 | 0.00 | 36 | 1017.4 |
| 20260901183703 | 98 | 178 | 4.0 | 12.0 | 0.00 | 0.00 | 0.00 | 37 | 1017.7 |
| 20260901180703 | 97 | 149 | 3.0 | 5.0 | 0.00 | 0.00 | 0.00 | 39 | 1018.1 |
| 20260901180203 | 96 | 163 | 3.0 | 12.0 | 0.00 | 0.00 | 0.00 | 38 | 1018.1 |
| 20260901173703 | 97 | 160 | 3.0 | 8.0 | 0.00 | 0.00 | 0.00 | 40 | 1018.4 |
| 20260901173204 | 97 | 181 | 3.0 | 9.0 | 0.00 | 0.00 | 0.00 | 38 | 1018.5 |
| 20260901163703 | 94 | 147 | 2.0 | 5.0 | 0.00 | 0.00 | 0.00 | 49 | 1019.1 |
| 20260901163204 | 94 | 133 | 3.0 | 7.0 | 0.00 | 0.00 | 0.00 | 49 | 1019.1 |
| 20260901160702 | 91 | 155 | 3.0 | 6.0 | 0.00 | 0.00 | 0.00 | 54 | 1019.2 |
| 20260901160202 | 92 | 162 | 3.0 | 7.0 | 0.00 | 0.00 | 0.00 | 55 | 1019.2 |
| 20260901153703 | 88 | 130 | 3.0 | 8.0 | 0.00 | 0.00 | 0.00 | 56 | 1019.3 |
| 20260901153203 | 88 | 141 | 3.0 | 7.0 | 0.00 | 0.00 | 0.00 | 56 | 1019.3 |
| 20260901150703 | 85 | 144 | 3.0 | 5.0 | 0.00 | 0.00 | 0.00 | 62 | 1019.4 |
| 20260901150202 | 85 | 159 | 3.0 | 6.0 | 0.00 | 0.00 | 0.00 | 62 | 1019.5 |
| 20260901143703 | 84 | 149 | 4.0 | 6.0 | 0.00 | 0.00 | 0.00 | 63 | 1019.6 |
| 20260901143203 | 84 | 168 | 5.0 | 6.0 | 0.00 | 0.00 | 0.00 | 62 | 1019.5 |
| 20260901140703 | 83 | 153 | 1.0 | 3.0 | 0.00 | 0.00 | 0.00 | 62 | 1019.6 |
| 20260901140203 | 83 | 153 | 1.0 | 5.0 | 0.00 | 0.00 | 0.00 | 62 | 1019.6 |
| 20260901133204 | 81 | 153 | 0.0 | 1.0 | 0.00 | 0.00 | 0.00 | 64 | 1019.4 |
| 20260901130703 | 77 | 153 | 0.0 | 0.0 | 0.00 | 0.00 | 0.00 | 72 | 1019.3 |
| 20260901130203 | 76 | 153 | 0.0 | 1.0 | 0.00 | 0.00 | 0.00 | 71 | 1019.2 |
| 20260901123203 | 75 | 153 | 1.0 | 2.0 | 0.00 | 0.00 | 0.00 | 70 | 1018.9 |
| 20260901120703 | 75 | 154 | 0.0 | 1.0 | 0.00 | 0.00 | 0.00 | 68 | 1018.6 |
| 20260901120203 | 75 | 154 | 1.0 | 3.0 | 0.00 | 0.00 | 0.00 | 68 | 1018.6 |
| 20260901113703 | 75 | 154 | 0.0 | 3.0 | 0.00 | 0.00 | 0.00 | 67 | 1018.5 |
| 20260901113203 | 75 | 154 | 1.0 | 3.0 | 0.00 | 0.00 | 0.00 | 67 | 1018.5 |
| 20260901110703 | 75 | 153 | 1.0 | 3.0 | 0.00 | 0.00 | 0.00 | 67 | 1018.3 |
| 20260901103703 | 75 | 151 | 1.0 | 1.0 | 0.00 | 0.00 | 0.00 | 66 | 1018.2 |
| 20260901103203 | 75 | 151 | 0.0 | 2.0 | 0.00 | 0.00 | 0.00 | 66 | 1018.1 |
| 20260901100703 | 75 | 151 | 0.0 | 0.0 | 0.00 | 0.00 | 0.00 | 65 | 1018.0 |
| 20260901100203 | 75 | 151 | 0.0 | 2.0 | 0.00 | 0.00 | 0.00 | 64 | 1018.0 |
| 20260901093703 | 76 | 151 | 0.0 | 2.0 | 0.00 | 0.00 | 0.00 | 63 | 1017.8 |
| 20260901093203 | 76 | 151 | 1.0 | 5.0 | 0.00 | 0.00 | 0.00 | 63 | 1017.7 |